Regional Weather Roundup
Issued by NWS Sioux Falls, SD

Home | Current Version | Previous Version | Graphics & Text | Print | Product List | Glossary On
Versions: 1 2 3 4 5 6 7 8 9 10 11 12 13 14 15 16 17 18 19 20 21 22 23 24 25 26 27 28 29 30 31 32 33 34 35 36 37 38 39 40 41 42 43 44 45 46 47 48 49 50
000
ASUS43 KFSD 040402
RWRFSD

WEATHER ROUNDUP FOR SE SOUTH DAKOTA/SW MINNESOTA/NW IOWA
NATIONAL WEATHER SERVICE SIOUX FALLS SD
1100 PM CDT TUE MAY 03 2016

NOTE: "FAIR" INDICATES FEW OR NO CLOUDS BELOW 12,000 FEET WITH NO
SIGNIFICANT WEATHER AND OR OBSTRUCTIONS TO VISIBILITY.


SDZ038>040-050-052>070-040500-
SOUTHEAST SOUTH DAKOTA

CITY           SKY/WX    TMP DP  RH WIND       PRES   REMARKS
BROOKINGS      CLEAR     52  31  44 N10       29.91R
CHAMBERLAIN    NOT AVBL
HURON          CLEAR     55  31  39 N12       29.95R
MADISON        FAIR      52  32  46 N12       29.92R
MITCHELL       CLEAR     54  38  54 N8        29.94R
SIOUX FALLS    CLEAR     52  33  48 N9        29.90R
WINNER         FAIR      58  43  57 NW5       30.01R
YANKTON        CLEAR     55  41  58 NW9       29.91R
$$

MNZ071-072-080-081-089-090-097-098-040500-
SOUTHWEST MINNESOTA

CITY           SKY/WX    TMP DP  RH WIND       PRES   REMARKS
FAIRMONT       CLEAR     57  28  33 NW16      29.79R
JACKSON        CLEAR     55  28  35 NW16G24   29.83R
LUVERNE        CLEAR     55  30  38 N14G21    29.88R
MARSHALL       CLEAR     55  29  36 N14       29.88R
MONTEVIDEO     CLEAR     54  28  37 N13       29.89R
PIPESTONE      CLEAR     55  27  33 N12G18    29.89R
REDWOOD FALLS  CLEAR     58  26  29 N12G21    29.84R
TRACY          CLEAR     56  31  39 N12       29.87R
WINDOM         CLEAR     55  28  35 NW13      29.84R
WORTHINGTON    CLEAR     51  36  56 NW15      29.86R
$$

IAZ001>003-012>014-020>022-031-032-NEZ013-014-SDZ071-040500-
NORTHWEST IOWA

CITY           SKY/WX    TMP DP  RH WIND       PRES   REMARKS
DENISON        MOCLDY    59  45  58 W10       29.81S
ESTHERVILLE    CLEAR     54  34  46 N18       29.80R
SIOUX CITY     CLEAR     59  46  62 NW13      29.87R
SPENCER        CLEAR     54  34  46 N15       29.82R
STORM LAKE     PTCLDY    59  36  41 N14G23    29.84R
$$

ABBREVIATIONS USED IN REMARKS
   TC - TEMPERATURE IN CELSIUS
  WCI - WIND CHILL INDEX
   HX - HEAT INDEX
  VSB - VISIBILITY





USA.gov is the U.S. government's official web portal to all federal, state and local government web resources and services.